Location: Carson
(33.8314°N, 118.2820°W)
Time: 13:01:17
(UTC+00:00)

Cosmos 1709 Rocket - Pass Details

Date: 23 November 2020
Orbit: 947 x 1003 km, 82.9° (Epoch: 21 January)

Event Time Altitude Azimuth Distance (km) Brightness Sun altitude
Rises 12:51:30 0° 185° (S) 3,681 7.1 -20.9°
Reaches altitude 10° 12:53:59 10° 185° (S) 2,743 6.4 -20.4°
Maximum altitude 13:00:19 88° 276° (W) 1,004 4.0 -19.1°
Drops below altitude 10° 13:06:44 10° 5° (N) 2,779 6.3 -17.9°
Sets 13:09:16 0° 6° (N) 3,733 7.0 -17.3°
